Location: Coopersdale
(40.3556°N, 78.9372°W)
Time: 23:35:25
(UTC+00:00)

Transit 4A - Pass Details

Date: 22 January 2021
Orbit: 867 x 978 km, 66.8° (Epoch: 07 March)

Event Time Altitude Azimuth Distance (km) Brightness Sun altitude
Rises 09:08:43 0° 334° (NNW) 3,627 - -38.7°
Reaches altitude 10° 09:11:24 10° 340° (NNW) 2,663 - -38.2°
Maximum altitude 09:17:24 50° 55° (NE) 1,164 - -37.1°
Exits shadow 09:19:00 40° 98° (E) 1,322 9.0 -36.8°
Drops below altitude 10° 09:23:11 10° 130° (SE) 2,573 10.7 -36.0°
Sets 09:25:44 0° 136° (SE) 3,494 11.4 -35.5°
